Wind_Speed
30 32 35 36 37 36 32 32 36 35 39 41 46 49 49 51 51 52 52 49 52 54 56 56 55 50 48 48 46 44 45 46 47 46 43 41 37 36 34 32 30 29 28 27 26 25 23 22 21
34 33 37 38 39 38 34 35 39 43 44 45 46 48 51 53 54 56 52 49 49 52 53 54 56 53 51 50 48 47 46 47 48 50 48 45 43 40 38 36 33 32 31 30 29 28 26 25 24
34 36 41 39 39 37 38 37 41 44 46 51 54 53 52 53 52 54 54 53 52 51 51 52 54 55 56 53 52 49 49 50 49 49 50 49 47 44 42 40 37 36 35 33 32 30 29 28 27
42 42 45 46 43 34 38 42 45 46 46 50 56 56 57 58 58 57 57 56 52 56 56 53 52 53 53 56 55 55 51 50 52 52 51 52 51 48 45 43 41 39 38 36 35 34 32 31 29
49 50 52 53 49 47 43 40 44 49 51 51 57 60 61 61 63 62 63 62 60 58 58 59 56 53 51 52 54 56 56 53 52 54 53 53 53 51 47 45 44 43 41 39 38 37 35 34 32
50 53 52 53 54 55 52 52 56 56 53 53 58 61 63 64 66 66 67 67 67 64 62 60 60 59 56 53 53 54 56 55 55 55 55 54 54 54 52 48 47 45 43 42 42 40 39 38 36
53 56 55 55 56 59 59 63 65 67 67 61 59 58 61 63 67 70 71 72 72 71 68 65 63 61 60 59 57 55 55 58 57 58 57 57 55 55 55 52 49 48 47 45 44 44 42 41 40
56 58 58 58 60 60 61 64 67 68 69 69 67 65 62 66 67 70 71 73 75 75 75 72 68 64 62 63 62 60 58 57 61 60 61 60 59 57 57 57 53 50 51 49 47 46 45 44 44
58 61 60 62 62 62 65 66 66 70 73 76 77 73 65 66 69 72 73 75 75 74 74 75 73 69 65 63 65 65 62 62 61 64 64 64 64 61 58 58 58 53 51 52 51 49 48 47 47
60 62 64 65 67 66 66 70 71 73 74 78 80 76 73 69 68 73 77 78 79 80 76 77 77 74 70 68 69 68 67 66 66 65 68 67 67 67 64 61 58 58 54 52 54 53 50 50 50
61 63 66 67 70 71 70 71 75 77 75 82 84 83 82 79 72 72 77 82 83 85 85 83 81 79 77 76 75 74 75 73 71 70 69 70 70 70 69 65 63 61 57 56 53 56 54 52 51
63 65 68 70 72 74 74 74 76 81 82 85 87 88 89 88 83 74 72 83 88 89 89 90 88 86 83 82 81 78 75 76 75 74 72 71 73 72 72 70 68 64 61 58 55 53 55 56 53
64 69 71 73 75 78 77 77 81 83 86 87 90 94 95 92 90 82 75 77 87 93 94 96 95 93 92 89 87 83 80 78 79 77 76 76 74 75 74 74 71 69 64 55 57 59 52 56 58
67 71 72 75 78 81 79 79 87 84 87 90 93 94 94 93 91 85 80 77 82 89 95 100 100 97 94 94 94 88 83 82 80 81 81 79 78 76 77 76 74 73 69 66 56 59 59 55 58
72 72 75 78 80 81 84 75 85 87 85 84 83 83 82 76 69 66 66 72 80 87 94 98 101 101 96 93 93 93 90 87 85 84 84 84 82 80 79 79 77 77 74 69 72 56 56 59 57
74 75 77 79 81 84 88 81 87 80 76 75 73 65 56 50 50 45 50 56 65 78 88 95 98 98 97 95 94 95 95 94 91 88 87 88 86 84 82 82 81 79 78 72 69 54 68 62 57
77 79 79 77 81 85 87 87 79 70 61 57 46 40 44 51 52 52 53 58 60 61 68 80 89 93 96 98 98 97 97 98 96 94 92 91 92 89 87 85 84 83 82 77 70 66 57 60 62
78 79 79 83 80 81 81 74 69 54 42 42 42 42 36 39 48 51 50 46 50 53 57 63 69 80 89 95 98 99 100 101 100 99 97 95 95 95 92 89 88 86 86 85 78 61 48 58 65
78 80 83 80 78 78 68 65 47 30 23 24 26 28 33 31 28 33 36 41 44 49 52 54 60 66 75 85 93 97 100 102 104 104 103 100 98 99 97 94 91 90 89 90 85 86 60 56 64
78 79 79 76 72 65 49 40 26 21 17 17 14 16 20 28 26 31 36 38 39 39 40 45 51 58 66 75 85 93 98 101 104 107 107 106 104 102 102 100 96 94 92 93 91 85 67 48 65
75 76 75 75 70 55 37 19 10 13 13 14 13 12 17 22 25 24 27 29 32 34 36 35 35 45 57 66 73 82 93 99 103 106 110 110 109 107 107 105 101 98 97 96 97 91 93 73 60
72 72 73 68 56 51 25 30 5 8 8 14 12 9 12 17 20 26 28 32 36 37 38 38 37 35 37 48 61 71 80 91 98 107 110 114 113 111 110 110 107 102 101 100 98 99 93 100 67
72 70 68 60 42 36 19 25 15 14 15 14 17 13 16 23 27 31 34 35 36 38 37 35 35 35 35 41 48 55 65 76 89 99 109 113 115 115 113 113 111 108 104 102 102 99 98 96 88
70 66 60 49 32 25 15 19 13 6 9 8 13 17 24 23 27 34 36 35 32 33 33 33 31 33 37 39 41 46 56 65 76 86 100 111 115 117 116 115 115 112 108 105 105 103 102 100 99
63 57 53 45 28 20 12 15 14 13 18 21 25 23 24 25 26 31 35 36 37 36 35 35 36 37 39 41 44 45 44 46 55 70 84 98 113 118 119 118 118 116 112 109 107 107 104 103 96
59 53 40 32 27 26 17 14 13 14 18 20 24 23 23 23 27 30 32 34 35 35 35 36 39 42 43 44 47 51 53 52 50 59 70 87 103 115 120 120 120 119 117 114 110 107 107 104 100
58 43 33 24 24 25 13 5 5 14 21 22 22 21 23 27 29 31 32 33 35 36 38 37 37 35 41 44 42 46 58 59 55 57 63 74 91 107 117 121 121 121 120 118 114 110 107 106 103
50 39 24 22 25 19 11 1 18 16 12 10 14 18 20 22 25 28 31 33 36 37 37 33 34 38 38 43 50 48 43 58 62 58 61 64 77 96 112 121 121 122 122 120 118 112 109 107 105
42 33 21 19 20 22 9 5 19 15 18 13 16 18 20 23 26 29 31 34 35 31 28 34 43 41 40 42 48 55 53 51 63 64 58 64 67 82 101 116 122 123 123 122 120 116 111 109 107
35 20 15 17 19 18 15 6 16 19 18 20 22 24 26 27 30 30 31 30 27 31 38 37 37 43 43 44 43 49 56 55 51 67 63 65 67 72 88 105 117 122 124 123 122 118 114 111 108
Wind_Direction
292 290 286 282 284 286 289 289 287 286 278 273 270 267 268 268 266 262 257 251 250 251 249 251 253 248 245 248 248 240 239 240 242 242 241 242 239 238 242 243 241 236 231 225 221 221 221 224 223
301 296 291 290 290 294 297 290 287 284 280 277 274 273 271 268 266 266 262 259 253 252 251 248 248 247 244 242 245 245 240 238 237 239 239 240 240 238 238 241 242 242 236 231 225 221 217 220 225
307 301 295 294 295 301 293 285 277 276 275 275 275 272 268 268 267 268 267 263 259 257 255 254 250 248 243 240 239 241 240 237 236 235 237 237 238 237 237 238 241 242 239 234 231 224 220 218 221
308 306 302 304 306 302 290 285 277 272 271 276 275 274 274 272 270 268 265 262 255 255 255 252 249 248 245 243 240 236 238 237 235 233 232 234 235 236 235 236 238 238 238 236 232 230 224 221 221
306 305 303 308 311 307 297 289 277 274 274 266 266 269 268 268 269 267 266 264 262 255 251 251 250 249 247 243 241 240 235 235 236 235 231 231 234 234 233 234 234 235 236 236 233 231 228 225 222
301 298 301 300 298 298 301 296 292 290 286 281 273 271 267 267 266 264 263 262 261 259 256 250 249 249 248 246 243 240 238 233 231 234 235 231 232 234 233 232 232 231 234 236 235 232 231 229 225
298 295 295 294 291 287 291 291 292 293 295 288 281 274 271 269 264 263 262 262 261 258 254 253 248 245 245 245 245 241 238 236 232 230 232 233 230 231 233 231 233 232 229 234 235 234 233 232 229
296 295 293 290 289 288 287 288 287 288 286 291 286 279 269 264 261 260 259 259 259 259 258 253 249 245 242 242 242 242 239 235 233 230 229 230 231 229 232 231 230 236 231 227 233 233 233 234 233
297 295 295 292 291 289 288 287 287 288 287 287 286 283 274 262 258 256 254 254 254 255 255 255 251 245 241 239 240 240 239 237 233 230 229 227 229 229 228 231 229 230 239 230 228 231 232 233 235
300 298 296 294 292 288 287 286 285 283 282 283 282 281 277 267 259 255 253 250 248 249 247 249 250 248 243 237 233 233 236 235 234 231 228 228 226 228 227 228 229 228 236 240 231 227 230 231 234
297 295 293 293 289 289 287 285 283 283 280 281 279 279 277 273 263 254 250 248 249 247 245 243 243 246 243 239 236 232 229 231 232 231 229 226 227 225 227 226 227 227 224 240 241 232 224 229 231
299 297 294 293 292 290 287 286 285 285 281 280 280 278 276 274 272 262 250 245 245 244 246 244 241 239 241 239 236 234 231 231 231 232 232 228 226 226 226 225 225 226 226 234 238 241 233 225 229
303 300 299 296 294 292 290 291 286 285 286 282 279 276 275 274 270 264 253 243 242 242 243 243 244 240 238 239 237 234 232 230 230 230 231 231 227 226 225 224 225 225 222 219 229 238 236 232 229
306 304 301 297 296 296 294 292 290 287 286 284 281 278 275 270 266 262 256 247 239 238 240 241 243 243 241 238 239 235 233 231 229 228 230 230 229 226 225 225 223 224 223 218 225 233 235 236 237
308 305 302 300 299 298 294 290 292 292 290 286 281 275 270 269 264 260 254 245 241 236 235 236 238 240 241 240 238 237 235 232 229 227 226 228 229 228 225 223 223 222 223 221 222 221 234 233 237
306 304 302 303 303 301 299 298 295 297 292 286 277 272 265 264 258 245 246 245 244 241 236 233 235 235 237 237 235 234 234 232 230 228 226 226 228 228 226 223 223 222 221 221 220 227 237 231 233
306 305 304 305 305 304 303 303 301 299 292 286 282 277 264 249 254 250 253 247 248 245 242 238 235 235 236 236 235 234 233 232 230 228 227 224 226 227 226 224 222 221 220 219 218 223 226 230 230
309 309 309 309 309 307 305 307 307 304 289 276 270 267 265 262 256 256 250 248 251 256 250 244 238 236 234 234 233 232 231 231 230 228 227 225 223 225 226 224 222 220 220 218 217 216 219 225 229
312 313 313 313 312 310 314 309 313 307 275 272 274 264 255 250 258 259 256 251 250 252 255 249 244 237 232 232 233 232 230 228 228 227 225 226 223 223 224 224 222 221 219 219 218 218 226 225 224
313 315 313 315 314 313 319 320 321 297 302 304 290 282 265 250 252 250 251 252 254 254 254 254 250 247 239 233 230 230 230 228 226 225 224 223 223 221 223 223 222 221 219 218 218 218 214 208 225
315 316 318 315 316 320 311 313 350 344 340 330 313 308 273 259 254 254 260 268 271 269 267 266 264 252 241 241 237 233 230 228 226 225 224 222 221 220 221 222 222 220 219 218 218 215 215 219 210
319 320 317 316 320 322 314 301 322 301 322 320 317 302 305 283 274 269 271 270 272 275 276 276 273 266 252 243 242 240 237 231 227 225 224 223 221 220 219 220 221 221 219 219 219 218 218 218 211
321 322 318 320 318 316 311 302 300 309 303 309 311 304 297 275 265 266 271 272 273 274 276 277 275 271 262 252 244 242 241 238 231 227 224 223 222 219 218 218 219 220 219 218 220 220 218 217 217
323 322 320 316 317 308 307 316 321 278 284 290 278 276 283 287 280 271 275 280 277 276 273 273 273 268 264 258 252 248 247 244 241 234 226 223 221 220 218 217 217 218 219 218 219 221 221 220 220
324 322 319 317 329 321 304 303 301 299 292 278 272 280 284 288 287 285 285 284 283 282 282 280 278 273 265 261 255 247 241 245 246 241 235 226 221 219 218 217 217 217 219 219 218 220 221 223 221
326 324 318 312 321 321 317 296 300 326 302 291 285 291 294 298 296 292 290 288 285 282 277 274 275 276 267 263 258 252 250 248 247 243 238 231 224 219 218 217 217 216 217 219 218 219 220 222 222
327 324 312 300 306 315 330 359 359 319 304 309 306 302 303 302 301 297 293 291 289 289 289 286 288 281 273 267 265 261 251 250 244 240 237 233 226 221 218 217 216 217 216 218 219 218 220 222 223
327 321 301 297 312 319 331 60 332 314 317 306 306 305 307 307 308 305 303 303 301 301 297 293 291 286 280 273 264 256 258 248 243 239 234 233 228 223 218 217 216 216 216 217 219 219 220 222 223
331 327 288 295 295 308 327 359 324 332 334 323 328 324 325 322 326 326 320 313 308 303 299 290 289 288 279 276 266 253 254 256 242 236 234 228 227 224 220 217 216 216 216 216 217 219 220 222 223
336 325 271 287 307 309 307 26 315 330 339 331 338 334 328 331 338 332 327 321 320 314 302 306 310 302 294 286 272 260 250 249 251 229 228 227 224 223 221 218 216 215 215 216 216 217 220 222 224
Height
5762 5761 5759 5757 5758 5757 5760 5760 5757 5755 5751 5748 5744 5744 5744 5743 5743 5748 5752 5758 5758 5757 5762 5764 5767 5773 5778 5779 5781 5785 5787 5791 5794 5797 5801 5804 5808 5811 5814 5817 5819 5820 5821 5821 5823 5826 5830 5832 5834
5757 5753 5751 5748 5751 5751 5753 5751 5747 5745 5743 5740 5737 5735 5734 5734 5732 5732 5742 5748 5750 5747 5749 5752 5755 5761 5767 5770 5772 5775 5779 5782 5785 5788 5793 5797 5801 5805 5808 5810 5813 5816 5818 5819 5819 5821 5824 5827 5830
5741 5741 5739 5737 5742 5742 5740 5738 5736 5734 5733 5729 5726 5726 5722 5723 5724 5724 5729 5735 5740 5738 5739 5742 5745 5749 5755 5758 5762 5763 5768 5772 5776 5779 5783 5788 5792 5796 5801 5804 5807 5810 5813 5815 5816 5817 5819 5822 5825
5736 5734 5731 5730 5730 5734 5730 5726 5723 5724 5725 5721 5714 5714 5711 5712 5714 5714 5716 5719 5725 5726 5727 5729 5732 5735 5740 5745 5751 5754 5756 5761 5765 5769 5772 5778 5783 5787 5792 5797 5800 5803 5806 5809 5812 5813 5815 5817 5819
5726 5725 5721 5720 5719 5718 5715 5716 5710 5709 5709 5710 5702 5701 5698 5700 5699 5701 5702 5705 5709 5712 5714 5717 5720 5723 5727 5731 5737 5742 5747 5749 5755 5759 5764 5768 5774 5778 5783 5787 5791 5796 5799 5803 5806 5808 5810 5813 5814
5719 5714 5713 5711 5708 5704 5701 5696 5690 5691 5694 5696 5690 5687 5687 5686 5686 5687 5688 5689 5691 5697 5700 5703 5706 5709 5714 5718 5724 5730 5735 5739 5743 5749 5754 5759 5764 5770 5775 5779 5782 5786 5791 5796 5800 5803 5805 5808 5809
5710 5705 5706 5701 5698 5693 5690 5684 5682 5679 5676 5675 5673 5672 5671 5670 5670 5670 5672 5673 5674 5678 5682 5687 5691 5694 5698 5704 5709 5715 5721 5727 5732 5736 5743 5748 5753 5760 5766 5771 5775 5777 5782 5787 5793 5797 5799 5802 5805
5701 5696 5695 5690 5685 5679 5676 5673 5668 5666 5665 5656 5651 5652 5650 5647 5650 5651 5654 5656 5656 5659 5663 5667 5674 5679 5684 5688 5694 5699 5706 5712 5719 5724 5729 5736 5743 5748 5756 5762 5765 5769 5772 5777 5784 5789 5793 5795 5799
5689 5685 5680 5673 5670 5665 5657 5653 5652 5648 5643 5637 5630 5627 5629 5628 5628 5630 5632 5635 5638 5640 5643 5647 5653 5661 5668 5673 5678 5684 5689 5696 5703 5711 5716 5723 5729 5736 5743 5751 5756 5761 5765 5767 5773 5780 5784 5789 5791
5677 5672 5664 5659 5654 5650 5645 5637 5634 5630 5627 5619 5610 5606 5603 5603 5605 5607 5609 5613 5617 5620 5624 5628 5633 5641 5649 5655 5659 5666 5672 5678 5686 5695 5701 5709 5716 5724 5730 5738 5746 5752 5757 5760 5763 5769 5775 5780 5783
5666 5660 5651 5647 5636 5631 5629 5623 5614 5609 5610 5595 5587 5583 5579 5578 5580 5584 5587 5590 5592 5596 5602 5608 5614 5619 5627 5634 5641 5648 5654 5661 5668 5677 5686 5693 5702 5709 5718 5725 5734 5739 5747 5752 5755 5758 5763 5770 5775
5652 5645 5636 5629 5620 5612 5609 5603 5596 5584 5581 5571 5565 5562 5558 5555 5554 5555 5562 5567 5568 5571 5577 5583 5591 5597 5602 5610 5619 5628 5637 5645 5652 5660 5670 5678 5686 5694 5702 5711 5719 5728 5738 5746 5748 5752 5757 5760 5766
5639 5628 5620 5609 5600 5589 5589 5580 5567 5564 5552 5545 5539 5536 5533 5530 5529 5529 5531 5540 5544 5547 5553 5558 5563 5572 5580 5587 5597 5607 5616 5626 5636 5644 5652 5661 5670 5679 5687 5697 5705 5716 5725 5733 5727 5743 5748 5753 5756
5623 5611 5601 5590 5579 5566 5566 5559 5535 5539 5526 5518 5511 5504 5502 5499 5500 5503 5504 5510 5517 5522 5527 5530 5536 5547 5558 5567 5574 5585 5594 5604 5615 5625 5633 5643 5653 5663 5672 5683 5690 5703 5713 5722 5721 5729 5739 5744 5750
5604 5594 5581 5569 5557 5544 5532 5547 5515 5506 5501 5490 5480 5474 5469 5469 5471 5473 5479 5482 5486 5490 5496 5501 5510 5519 5532 5543 5553 5563 5572 5581 5592 5603 5615 5624 5635 5646 5655 5666 5676 5688 5699 5708 5714 5707 5724 5732 5739
5583 5574 5565 5550 5535 5522 5502 5512 5497 5479 5465 5460 5451 5448 5448 5451 5453 5454 5455 5457 5460 5461 5469 5477 5486 5497 5507 5516 5527 5537 5546 5557 5570 5583 5595 5605 5616 5627 5638 5649 5662 5672 5683 5694 5704 5708 5711 5722 5728
5562 5551 5542 5537 5519 5497 5483 5473 5470 5455 5440 5434 5430 5427 5428 5431 5434 5438 5436 5438 5441 5448 5454 5460 5467 5476 5484 5491 5501 5511 5522 5533 5547 5560 5572 5585 5596 5608 5620 5632 5645 5655 5667 5678 5686 5696 5696 5708 5718
5540 5529 5522 5505 5499 5483 5460 5450 5439 5431 5420 5413 5413 5413 5413 5414 5417 5419 5421 5425 5428 5431 5435 5440 5447 5453 5458 5465 5474 5485 5497 5510 5523 5537 5549 5563 5576 5588 5600 5614 5627 5638 5651 5662 5669 5681 5684 5691 5706
5519 5509 5491 5485 5473 5450 5442 5430 5422 5414 5405 5403 5405 5403 5405 5406 5409 5410 5412 5413 5414 5415 5415 5418 5424 5430 5435 5441 5449 5459 5469 5482 5497 5510 5525 5539 5554 5566 5580 5594 5609 5621 5633 5646 5653 5664 5673 5679 5690
5501 5489 5476 5469 5454 5435 5429 5420 5413 5404 5405 5403 5401 5400 5399 5401 5401 5401 5400 5401 5402 5402 5403 5404 5407 5412 5416 5420 5426 5433 5444 5457 5469 5483 5500 5515 5530 5544 5557 5573 5588 5602 5614 5627 5636 5645 5664 5665 5668
5491 5471 5460 5442 5438 5430 5415 5417 5413 5408 5403 5399 5397 5395 5395 5393 5391 5391 5392 5393 5392 5392 5392 5392 5392 5394 5398 5402 5406 5411 5418 5431 5446 5460 5473 5488 5502 5518 5535 5551 5566 5582 5594 5608 5619 5630 5642 5649 5657
5482 5464 5446 5431 5419 5416 5410 5404 5409 5405 5400 5398 5395 5393 5391 5391 5389 5388 5388 5386 5385 5384 5383 5382 5381 5382 5384 5385 5388 5392 5397 5406 5420 5431 5446 5461 5477 5494 5512 5528 5545 5561 5575 5589 5600 5612 5622 5635 5639
5464 5452 5436 5423 5414 5408 5408 5402 5403 5401 5397 5394 5392 5389 5386 5385 5384 5382 5380 5379 5378 5376 5374 5372 5371 5371 5371 5372 5373 5375 5379 5386 5393 5404 5418 5435 5452 5470 5488 5505 5521 5539 5554 5571 5582 5591 5604 5618 5622
5447 5439 5425 5415 5409 5404 5402 5399 5398 5396 5393 5390 5387 5383 5381 5380 5377 5375 5372 5370 5368 5366 5363 5361 5360 5360 5360 5361 5362 5364 5366 5370 5374 5384 5394 5409 5426 5445 5464 5482 5499 5516 5533 5550 5564 5573 5583 5598 5607
5437 5421 5412 5405 5404 5399 5397 5396 5394 5392 5388 5385 5381 5379 5377 5374 5371 5368 5364 5360 5357 5354 5352 5350 5348 5348 5347 5347 5348 5349 5351 5353 5357 5363 5372 5384 5400 5420 5440 5459 5477 5495 5513 5528 5543 5555 5567 5578 5593
5430 5415 5403 5393 5393 5390 5392 5391 5390 5387 5383 5378 5377 5375 5371 5369 5364 5360 5355 5351 5347 5344 5342 5340 5337 5335 5332 5331 5332 5332 5334 5337 5340 5344 5351 5361 5375 5394 5414 5433 5453 5472 5489 5505 5522 5537 5550 5564 5577
5419 5408 5400 5392 5391 5386 5385 5386 5386 5383 5378 5376 5374 5370 5367 5362 5358 5353 5348 5342 5338 5334 5330 5327 5324 5320 5317 5314 5313 5313 5313 5315 5320 5323 5329 5340 5354 5371 5390 5408 5429 5450 5468 5485 5503 5520 5534 5547 5561
5410 5403 5396 5392 5386 5381 5382 5382 5380 5378 5375 5372 5369 5365 5362 5357 5353 5347 5341 5335 5329 5323 5318 5314 5309 5306 5301 5297 5294 5293 5292 5293 5297 5303 5312 5321 5334 5348 5365 5386 5407 5425 5445 5463 5481 5501 5517 5530 5545
5403 5394 5390 5388 5386 5382 5380 5382 5376 5373 5370 5367 5364 5360 5356 5352 5346 5340 5333 5326 5319 5313 5308 5303 5297 5290 5282 5276 5272 5270 5271 5272 5274 5283 5292 5302 5312 5326 5341 5362 5383 5404 5424 5442 5461 5483 5499 5513 5529
5399 5391 5387 5385 5385 5382 5379 5380 5374 5370 5367 5362 5359 5355 5351 5346 5341 5334 5326 5318 5311 5305 5299 5292 5283 5275 5265 5256 5249 5245 5245 5248 5253 5261 5273 5280 5293 5304 5321 5339 5359 5379 5401 5422 5443 5464 5482 5498 5514